[[{"header":{"parameterUnit":"m.s-1","parameterCategory":1,"la1":30.2991,"la2":30.254,"lo1":-89.0895,"lo2":-89.0444,"dy":0.0017,"dx":0.0017,"nx":28,"ny":28,"refTime":"2023-07-23T21:00:00:Z","depth":0,"parameterNumber":2,"parameterNumberName":"U-component_of_WINDS"},"data":[0,0,0,0,0,0,0,0,0,0,0,0,0,0,0,0,0,0,0,0,0,0,0,0,0,0,0,0,0,0,0,0,0,0,0,0,0,0,0,0,0,0,0,0,0,0,0,0,0,0,0,0,0,0,0,0,0,0,-0.2585,-0.2585,0,-0.2571,-0.257,-0.257,-0.2538,-0.2537,-0.2536,-0.2536,-0.2522,-0.2522,-0.2522,0,0,0,0,0,0,0,0,0,0,0,0,0,-0.2585,-0.2585,-0.2585,-0.2585,-0.2585,-0.2571,-0.257,-0.257,-0.2538,-0.2537,-0.2536,-0.2535,-0.2522,-0.2522,-0.2522,0,0,0,0,0,0,0,0,0,0,0,0,0,-0.2579,-0.2585,-0.2585,-0.2567,-0.2565,-0.2571,-0.257,-0.257,-0.2538,-0.2537,-0.2536,-0.2535,-0.2521,-0.2522,-0.2522,-0.2545,0,0,-0.2523,-0.2524,0,0,0,0,0,0,0,0,-0.258,-0.2579,-0.257,-0.2568,-0.2566,-0.2555,-0.2565,-0.2562,-0.2538,-0.2548,-0.2536,-0.2535,-0.2534,-0.2533,-0.2532,-0.2544,-0.2544,-0.2523,-0.2524,-0.2524,-0.2524,0,0,0,0,0,0,0,-0.258,-0.258,-0.2579,-0.2569,-0.2567,-0.2559,-0.2558,-0.2564,-0.2547,-0.2547,-0.2545,-0.2544,-0.2532,-0.2532,-0.2532,-0.2543,-0.2523,-0.2524,-0.2524,-0.2524,-0.2574,-0.2575,0,0,0,0,0,0,-0.2583,-0.258,-0.258,-0.2579,-0.257,-0.256,-0.2558,-0.2559,-0.2547,-0.2544,-0.2544,-0.2542,-0.2532,-0.2531,-0.2531,-0.2558,-0.2524,-0.2524,-0.2524,-0.2573,-0.2574,-0.2575,0,0,0,0,0,0,-0.2583,-0.2583,-0.258,-0.2579,-0.2578,-0.2561,-0.2563,-0.256,-0.2559,-0.2544,-0.2541,-0.2547,-0.2531,-0.2531,-0.2542,-0.2557,-0.2524,-0.2525,-0.2571,-0.2573,-0.2575,-0.261,0,0,0,0,0,0,-0.2583,-0.2583,-0.2592,-0.2579,-0.2578,-0.2591,-0.2564,-0.256,-0.256,-0.2557,-0.2546,-0.2544,-0.253,-0.2541,-0.2542,-0.2557,-0.2525,-0.257,-0.2572,-0.2574,-0.2608,-0.2613,-0.2617,0,0,0,0,0,-0.2583,-0.2602,-0.2592,-0.2592,-0.2588,-0.2592,-0.2591,-0.2575,-0.2561,-0.257,-0.256,-0.2544,-0.2555,-0.2543,-0.2543,-0.2558,-0.2569,-0.2572,-0.2574,-0.2605,-0.2612,-0.2617,0,0,0,0,0,0,-0.2617,-0.26,-0.2589,-0.2604,-0.26,-0.2586,-0.2596,-0.2582,-0.2582,-0.2579,-0.2559,-0.2557,-0.2571,-0.2566,-0.2553,-0.258,-0.2559,-0.2562,-0.2583,-0.2589,-0.2594,-0.2595,-0.2525,0,0,0,0,0,-0.2626,-0.263,-0.2615,-0.263,-0.2629,-0.2613,-0.2614,-0.2602,-0.2597,-0.2595,-0.2586,-0.2582,-0.2584,-0.2586,-0.2587,-0.2606,-0.2604,-0.2617,-0.2622,-0.2626,-0.2629,-0.2639,-0.2645,-0.2583,-0.2583,-0.2583,0,0,-0.2645,-0.2636,-0.264,-0.2637,-0.2632,-0.2637,-0.2612,-0.2618,-0.2622,-0.2596,-0.2606,-0.26,-0.2593,-0.2609,-0.2615,-0.2605,-0.2645,-0.2629,-0.2632,-0.2633,-0.2642,-0.2648,-0.2653,-0.2585,-0.2585,-0.2584,0,0,-0.2682,-0.2676,-0.2688,-0.2683,-0.2676,-0.2666,-0.2669,-0.2658,-0.2652,-0.2662,-0.2643,-0.2648,-0.2652,-0.2649,-0.2647,-0.2684,-0.267,-0.2685,-0.2711,-0.2721,-0.2726,-0.273,-0.2744,-0.2749,-0.2688,-0.2688,-0.2688,0,-0.2706,-0.2713,-0.2696,-0.2704,-0.2703,-0.268,-0.2692,-0.2689,-0.2683,-0.2683,-0.2671,-0.2677,-0.2671,-0.2686,-0.2695,-0.2694,-0.2698,-0.2687,-0.2727,-0.2731,-0.2734,-0.2748,-0.2753,-0.269,-0.269,-0.2689,-0.2689,0,-0.2744,-0.2749,-0.276,-0.2755,-0.2756,-0.2766,-0.275,-0.2753,-0.2741,-0.2732,-0.2743,-0.2735,-0.2735,-0.2738,-0.2726,-0.2751,-0.2745,-0.273,-0.2709,-0.2743,-0.2755,-0.276,-0.2693,-0.2692,-0.2691,-0.2691,0,0,-0.2802,-0.2787,-0.2792,-0.2789,-0.278,-0.2784,-0.2794,-0.2793,-0.2797,-0.2793,-0.2801,-0.2806,-0.2792,-0.2791,-0.2779,-0.2788,-0.2819,-0.2772,-0.2772,-0.2782,-0.2847,-0.2859,-0.2865,-0.2809,-0.281,-0.2811,-0.2848,0,-0.2838,-0.2853,-0.2838,-0.2856,-0.2861,-0.2839,-0.2848,-0.2843,-0.2835,-0.2839,-0.283,-0.2834,-0.2815,-0.2814,-0.2822,-0.2814,-0.2832,-0.281,-0.2817,-0.2817,-0.282,-0.2871,-0.2883,-0.2919,-0.2853,-0.2853,-0.2854,0,-0.2881,-0.288,-0.29,-0.289,-0.2891,-0.2899,-0.2898,-0.2901,-0.2896,-0.289,-0.2889,-0.2874,-0.2883,-0.2863,-0.2876,-0.2861,-0.2863,-0.2859,-0.286,-0.2861,-0.2838,-0.2874,-0.293,-0.2936,-0.2861,-0.286,-0.286,0,-0.2923,-0.2926,-0.2938,-0.2937,-0.2926,-0.2932,-0.2927,-0.2921,-0.2922,-0.2921,-0.2922,-0.2922,-0.2923,-0.2923,-0.291,-0.2896,-0.2925,-0.2902,-0.292,-0.2921,-0.2928,-0.2928,-0.2986,-0.2928,-0.2927,-0.2927,-0.2927,0,-0.2965,-0.2977,-0.2957,-0.2964,-0.2978,-0.2961,-0.2975,-0.2969,-0.2963,-0.297,-0.295,-0.2957,-0.2938,-0.2942,-0.2931,-0.2944,-0.2944,-0.294,-0.2937,-0.2942,-0.2943,-0.2943,-0.2941,-0.2929,-0.2928,-0.2928,-0.2928,0,-0.3013,-0.3,-0.3012,-0.3,-0.2998,-0.3009,-0.2999,-0.3006,-0.2997,-0.3005,-0.3006,-0.2992,-0.2996,-0.2982,-0.2984,-0.2977,-0.2996,-0.2989,-0.2998,-0.2996,-0.3015,-0.3014,-0.3076,-0.3084,-0.302,-0.3021,-0.3021,0,-0.3041,-0.3051,-0.3041,-0.3043,-0.304,-0.3045,-0.3046,-0.3029,-0.3031,-0.3026,-0.3034,-0.3037,-0.3038,-0.3046,-0.3036,-0.3038,-0.3031,-0.3053,-0.3031,-0.3037,-0.3033,-0.3033,-0.3034,-0.3058,-0.3059,-0.3059,-0.306,0,-0.3093,-0.3086,-0.3088,-0.3089,-0.3091,-0.309,-0.3088,-0.3092,-0.3074,-0.3077,-0.3081,-0.3083,-0.3085,-0.3088,-0.3088,-0.3084,-0.3069,-0.3066,-0.3071,-0.3077,-0.3082,-0.308,-0.3011,-0.3065,-0.3065,-0.3064,-0.3064,-0.3064,-0.3133,-0.314,-0.3134,-0.3138,-0.3135,-0.3134,-0.314,-0.3132,-0.3135,-0.3136,-0.3125,-0.3132,-0.3127,-0.3125,-0.3123,-0.3128,-0.3118,-0.3124,-0.3126,-0.3128,-0.3132,-0.3081,-0.3128,-0.3128,-0.3128,-0.3127,-0.3127,0,-0.3184,-0.3179,-0.3182,-0.3181,-0.3184,-0.3169,-0.3167,-0.317,-0.3176,-0.3173,-0.3175,-0.318,-0.3184,-0.3174,-0.3176,-0.3182,-0.3176,-0.3184,-0.3183,-0.3183,-0.314,-0.3136,-0.3189,-0.3189,-0.3189,-0.3189,-0.3189,-0.3189,-0.3211,-0.3223,-0.3216,-0.3227,-0.3222,-0.3229,-0.3229,-0.3228,-0.3225,-0.3232,-0.3235,-0.3228,-0.3223,-0.3225,-0.3227,-0.3224,-0.3226,-0.3237,-0.3232,-0.3192,-0.3186,-0.318,-0.3177,-0.3237,-0.3237,-0.3274,-0.3275,-0.3275]},{"header":{"parameterUnit":"m.s-1","parameterCategory":1,"la1":30.2991,"la2":30.254,"lo1":-89.0895,"lo2":-89.0444,"dy":0.0017,"dx":0.0017,"nx":28,"ny":28,"refTime":"2023-07-23T21:00:00:Z","depth":0,"parameterNumber":3,"parameterNumberName":"V-component_of_WINDS"},"data":[0,0,0,0,0,0,0,0,0,0,0,0,0,0,0,0,0,0,0,0,0,0,0,0,0,0,0,0,0,0,0,0,0,0,0,0,0,0,0,0,0,0,0,0,0,0,0,0,0,0,0,0,0,0,0,0,0,0,0.0177,0.0176,0,0.0145,0.0145,0.0144,0.0157,0.0158,0.0158,0.0159,0.0127,0.0126,0.0124,0,0,0,0,0,0,0,0,0,0,0,0,0,0.0249,0.0248,0.0177,0.0176,0.0176,0.0145,0.0145,0.0144,0.0157,0.0158,0.0159,0.0159,0.0128,0.0126,0.0124,0,0,0,0,0,0,0,0,0,0,0,0,0,0.0218,0.0247,0.0177,0.0179,0.0178,0.0145,0.0145,0.0144,0.0157,0.0158,0.0159,0.016,0.0129,0.0126,0.0124,0.0088,0,0,0.0117,0.0116,0,0,0,0,0,0,0,0,0.0219,0.0215,0.0179,0.0178,0.0178,0.0156,0.0159,0.0125,0.0156,0.0165,0.0159,0.016,0.0136,0.0133,0.0125,0.0086,0.0085,0.0117,0.0115,0.0115,0.0114,0,0,0,0,0,0,0,0.0221,0.0216,0.0164,0.0178,0.0178,0.0181,0.0178,0.0152,0.0145,0.0164,0.0165,0.0161,0.0136,0.0127,0.0124,0.0085,0.0117,0.0115,0.0113,0.0113,0.0015,0.0014,0,0,0,0,0,0,0.0224,0.0218,0.0165,0.0163,0.0202,0.0179,0.0175,0.0162,0.0145,0.0144,0.016,0.0162,0.0131,0.0127,0.0123,0.008,0.0115,0.0112,0.0111,0.0016,0.0015,0.0014,0,0,0,0,0,0,0.0225,0.0219,0.0167,0.0191,0.0185,0.0176,0.0162,0.0161,0.0152,0.0142,0.0141,0.0152,0.0131,0.0126,0.0097,0.0079,0.0111,0.0109,0.0018,0.0016,0.0014,-0.0007,0,0,0,0,0,0,0.0227,0.0219,0.0205,0.019,0.0183,0.014,0.016,0.0159,0.0148,0.015,0.0134,0.0133,0.0132,0.01,0.0094,0.0076,0.0107,0.0019,0.0017,0.0015,-0.0005,-0.001,-0.0013,0,0,0,0,0,0.023,0.02,0.0204,0.0198,0.0165,0.0139,0.0135,0.0134,0.0146,0.0132,0.0126,0.0133,0.0082,0.0097,0.0091,0.0072,0.002,0.0018,0.0015,-0.0003,-0.0009,-0.0013,0,0,0,0,0,0,0.0214,0.0199,0.0203,0.0168,0.0155,0.0141,0.0123,0.0128,0.0111,0.0114,0.0114,0.011,0.0079,0.0073,0.009,0.0036,0.0053,0.0049,0.0041,0.0036,0.0032,0.0034,0.0106,0,0,0,0,0,0.0206,0.0185,0.0174,0.0144,0.0137,0.0131,0.012,0.012,0.0107,0.0101,0.0093,0.008,0.0061,0.0048,0.003,-0.0006,-0.0009,-0.0022,-0.0026,-0.0029,-0.0033,-0.0052,-0.0058,0.0005,0.0005,0.0005,0,0,0.019,0.0179,0.0166,0.0141,0.013,0.011,0.0127,0.0104,0.0089,0.0098,0.0069,0.0063,0.0048,0.0015,0.0,0.0008,-0.0051,-0.0033,-0.0036,-0.0037,-0.0055,-0.0061,-0.0067,0.0003,0.0003,0.0003,0,0,0.015,0.014,0.0114,0.0104,0.0088,0.0084,0.0078,0.0064,0.006,0.0031,0.0038,0.002,-0.0013,-0.0024,-0.0034,-0.0077,-0.0071,-0.0083,-0.0105,-0.0124,-0.0129,-0.0133,-0.0148,-0.0154,-0.0087,-0.0087,-0.0087,0,0.0133,0.0101,0.0101,0.0077,0.0066,0.0073,0.0047,0.0037,0.0017,0.0009,0.0018,-0.0023,-0.0032,-0.0068,-0.0078,-0.0086,-0.0093,-0.0081,-0.0128,-0.0132,-0.0137,-0.0151,-0.0157,-0.0088,-0.0088,-0.0088,-0.0088,0,0.008,0.0058,0.004,0.0019,0.0005,-0.0019,-0.0023,-0.0036,-0.0035,-0.0039,-0.0068,-0.0079,-0.01,-0.0108,-0.0106,-0.0143,-0.0137,-0.0128,-0.0111,-0.0144,-0.0158,-0.0163,-0.009,-0.009,-0.0089,-0.0089,0,0,0.0029,0.0009,0.0002,-0.0007,-0.0024,-0.0041,-0.0065,-0.0084,-0.0096,-0.011,-0.013,-0.0158,-0.015,-0.0161,-0.016,-0.0177,-0.021,-0.0165,-0.0166,-0.0173,-0.0251,-0.0257,-0.0264,-0.0206,-0.0207,-0.0208,-0.0249,0,-0.0012,-0.0054,-0.0055,-0.0094,-0.0114,-0.0107,-0.0128,-0.014,-0.0145,-0.0162,-0.0167,-0.0187,-0.0174,-0.0181,-0.0197,-0.0203,-0.0226,-0.02,-0.0224,-0.0225,-0.0221,-0.0271,-0.0278,-0.0317,-0.0255,-0.0256,-0.0256,0,-0.0065,-0.0081,-0.0122,-0.0136,-0.0144,-0.0163,-0.0181,-0.0198,-0.0212,-0.0214,-0.0226,-0.0223,-0.0247,-0.0229,-0.0262,-0.0245,-0.0255,-0.0259,-0.026,-0.0263,-0.0243,-0.0274,-0.0329,-0.0335,-0.0265,-0.0264,-0.0263,0,-0.0098,-0.013,-0.0159,-0.0167,-0.0183,-0.0197,-0.0204,-0.0217,-0.0229,-0.0244,-0.0252,-0.027,-0.028,-0.0294,-0.0296,-0.0283,-0.0329,-0.0311,-0.0331,-0.0331,-0.0341,-0.034,-0.0398,-0.0348,-0.0348,-0.0348,-0.0347,0,-0.0143,-0.0169,-0.0174,-0.0191,-0.0219,-0.022,-0.0247,-0.0254,-0.0265,-0.0283,-0.0278,-0.0295,-0.0297,-0.0314,-0.0316,-0.0343,-0.0347,-0.0349,-0.0349,-0.035,-0.0349,-0.0356,-0.0353,-0.0349,-0.0349,-0.0348,-0.0348,0,-0.0185,-0.0189,-0.022,-0.0233,-0.0237,-0.0257,-0.0268,-0.0285,-0.0289,-0.0312,-0.0318,-0.0324,-0.0345,-0.0348,-0.0372,-0.0373,-0.0405,-0.0402,-0.04,-0.04,-0.0419,-0.0417,-0.0483,-0.0492,-0.0436,-0.0437,-0.0437,0,-0.0213,-0.0233,-0.0248,-0.026,-0.0269,-0.0288,-0.03,-0.0301,-0.0314,-0.0331,-0.0345,-0.0365,-0.0381,-0.0414,-0.0421,-0.0439,-0.0437,-0.0458,-0.0439,-0.0439,-0.0437,-0.0435,-0.0437,-0.0462,-0.0463,-0.0463,-0.0463,0,-0.0264,-0.0265,-0.0283,-0.0302,-0.0316,-0.0331,-0.0345,-0.0355,-0.0358,-0.0372,-0.0393,-0.0406,-0.043,-0.045,-0.0468,-0.0475,-0.047,-0.0469,-0.0475,-0.0475,-0.0473,-0.0474,-0.041,-0.0468,-0.0467,-0.0467,-0.0467,-0.0467,-0.03,-0.0316,-0.033,-0.035,-0.036,-0.0373,-0.0389,-0.0396,-0.0413,-0.0434,-0.0433,-0.0456,-0.0469,-0.0492,-0.0501,-0.0518,-0.0511,-0.0519,-0.0521,-0.0523,-0.0525,-0.0471,-0.0522,-0.0521,-0.0521,-0.0521,-0.0521,0,-0.035,-0.0358,-0.0376,-0.0396,-0.0411,-0.0405,-0.042,-0.0434,-0.0454,-0.0466,-0.0482,-0.0506,-0.0525,-0.0533,-0.0552,-0.0564,-0.0562,-0.0569,-0.0568,-0.057,-0.053,-0.0524,-0.057,-0.057,-0.057,-0.057,-0.057,-0.057,-0.0377,-0.0405,-0.0408,-0.0441,-0.0449,-0.0472,-0.0481,-0.0492,-0.0502,-0.0529,-0.0545,-0.055,-0.0561,-0.058,-0.0597,-0.0599,-0.0606,-0.0614,-0.0614,-0.0577,-0.0572,-0.0568,-0.0561,-0.0615,-0.0615,-0.0652,-0.0652,-0.0653]}]]